Location: St. Louis
(38.6270°N, 90.1994°W)
Time: 00:42:02
(UTC-06:00)

Vanguard 2 - Pass Details

Date: 09 December 2021
Orbit: 553 x 2936 km, 32.9° (Epoch: 16 January)

Event Time Altitude Azimuth Distance (km) Brightness Sun altitude
Rises 17:39:55 0° 260° (W) 3,655 12.9 -11.6°
Reaches altitude 10° 17:43:28 10° 238° (WSW) 3,070 12.0 -12.2°
Maximum altitude 17:47:43 16° 204° (SSW) 3,092 11.2 -13.0°
Drops below altitude 10° 17:53:06 10° 172° (S) 4,055 11.3 -14.0°
Sets 17:59:10 0° 154° (SSE) 5,603 11.8 -15.1°
